Albert Lea, MN

1:49 PM CDT on October 21, 2017 (GMT -0500)
Albert Lea Municipal

Weather History for KAEL - February, 2013

Change the Weather History Date:

Wednesday, February 20, 2013

  Actual Average Record
Temperature  
Mean Temperature 6 °F -  
Max Temperature 17 °F 29 °F 55 °F (2017)
Min Temperature -5 °F 15 °F -16 °F (2008)
Degree Days  
Heating Degree Days 59    
Moisture  
Dew Point 2 °F    
Average Humidity 79    
Maximum Humidity 92    
Minimum Humidity 63    
Precipitation  
Precipitation 0.00 in - - ()
Sea Level Pressure  
Sea Level Pressure 30.35 in    
Wind  
Wind Speed 6 mph (NNE)    
Max Wind Speed 12 mph    
Max Gust Speed -    
Visibility 10 miles    
Events      
Averages and records for this station are not official NWS values.
T = Trace of Precipitation, MM = Missing Value Source: NWS Daily Summary

Daily Weather History Graph

Daily Weather History Graph

Search for Another Location

Airport or City:

Trip Planner

Search our weather history database for the weather conditions in past years. The results will help you decide how hot, cold, wet, or windy it might be!

Date:

Astronomy

Feb. 20, 2013 Rise Set
Actual Time 7:04 AM CST 5:50 PM CST
Civil Twilight 6:35 AM CST 6:19 PM CST
Nautical Twilight 6:01 AM CST 6:53 PM CST
Astronomical Twilight 5:28 AM CST 7:26 PM CST
Moon 1:07 PM CST (2/20) 3:30 AM CST (2/20)
Length of Visible Light 11h 44m
Length of Day
10h 46m
Waxing Gibbous, 76% of the Moon is Illuminated
Feb 20
Waxing Gibbous
Feb 25
Full
Mar 4
Last Quarter
Mar 11
New
Mar 19
First Quarter

Hourly Weather History & Observations

Time (CST) Temp. Windchill Dew Point Humidity Pressure Visibility Wind Dir Wind Speed Gust Speed Precip Events Conditions
12:15 AM -2.2 °F -15.6 °F -7.6 °F 78% 30.32 in 10.0 mi WNW 6.9 mph - N/A   Clear
12:34 AM -2.2 °F -12.5 °F -7.6 °F 78% 30.33 in 10.0 mi NW 4.6 mph - N/A   Clear
12:55 AM -2.2 °F -14.2 °F -7.6 °F 78% 30.33 in 10.0 mi WNW 5.8 mph - N/A   Clear
1:15 AM -2.2 °F -14.2 °F -7.6 °F 78% 30.34 in 10.0 mi WNW 5.8 mph - N/A   Clear
1:34 AM -2.2 °F -12.5 °F -7.6 °F 78% 30.35 in 10.0 mi WNW 4.6 mph - N/A   Clear
1:55 AM -2.2 °F -16.8 °F -7.6 °F 78% 30.35 in 10.0 mi WNW 8.1 mph - N/A   Clear
2:15 AM -2.2 °F -14.2 °F -7.6 °F 78% 30.35 in 10.0 mi NW 5.8 mph - N/A   Clear
2:55 AM -2.2 °F - -7.6 °F 78% 30.36 in 10.0 mi Calm Calm - N/A   Clear
3:15 AM -4.0 °F -16.3 °F -7.6 °F 85% 30.36 in 10.0 mi NW 5.8 mph - N/A   Clear
3:34 AM -4.0 °F -14.6 °F -7.6 °F 85% 30.35 in 10.0 mi NNW 4.6 mph - N/A   Clear
3:55 AM -4.0 °F -12.4 °F -7.6 °F 85% 30.35 in 10.0 mi NW 3.5 mph - N/A   Clear
4:15 AM -4.0 °F -14.6 °F -7.6 °F 85% 30.36 in 10.0 mi NW 4.6 mph - N/A   Clear
4:34 AM -4.0 °F -14.6 °F -7.6 °F 85% 30.35 in 10.0 mi NNW 4.6 mph - N/A   Clear
4:55 AM -4.0 °F -16.3 °F -7.6 °F 85% 30.35 in 10.0 mi NNW 5.8 mph - N/A   Clear
5:15 AM -4.0 °F -14.6 °F -7.6 °F 85% 30.36 in 10.0 mi NW 4.6 mph - N/A   Clear
5:34 AM -4.0 °F - -7.6 °F 85% 30.36 in 10.0 mi Calm Calm - N/A   Clear
5:55 AM -4.0 °F -12.4 °F -7.6 °F 85% 30.36 in 10.0 mi NW 3.5 mph - N/A   Clear
6:15 AM -4.0 °F -14.6 °F -9.4 °F 78% 30.36 in 10.0 mi NNW 4.6 mph - N/A   Clear
6:34 AM -4.0 °F -17.8 °F -9.4 °F 78% 30.36 in 10.0 mi North 6.9 mph - N/A   Clear
6:55 AM -5.8 °F -19.9 °F -9.4 °F 84% 30.35 in 10.0 mi North 6.9 mph - N/A   Clear
7:14 AM -5.8 °F -18.4 °F -9.4 °F 84% 30.36 in 10.0 mi NNW 5.8 mph - N/A   Clear
7:35 AM -4.0 °F -20.2 °F -7.6 °F 85% 30.36 in 10.0 mi North 9.2 mph - N/A   Clear
7:55 AM -2.2 °F -18.0 °F -7.6 °F 78% 30.36 in 10.0 mi North 9.2 mph - N/A   Clear
8:14 AM -2.2 °F -15.6 °F -7.6 °F 78% 30.37 in 10.0 mi North 6.9 mph - N/A   Clear
8:35 AM -0.4 °F -17.6 °F -5.8 °F 78% 30.36 in 10.0 mi North 11.5 mph - N/A   Clear
8:54 AM -0.4 °F -17.6 °F -5.8 °F 78% 30.36 in 10.0 mi NNE 11.5 mph - N/A   Clear
9:15 AM 1.4 °F -13.5 °F -4.0 °F 78% 30.37 in 10.0 mi North 9.2 mph - N/A   Clear
9:34 AM 3.2 °F -6.2 °F -2.2 °F 78% 30.38 in 10.0 mi NNE 4.6 mph - N/A   Clear
9:54 AM 3.2 °F -6.2 °F -2.2 °F 78% 30.38 in 10.0 mi NNE 4.6 mph - N/A   Clear
10:15 AM 3.2 °F -6.2 °F -0.4 °F 85% 30.39 in 10.0 mi ENE 4.6 mph - N/A   Clear
10:34 AM 5.0 °F - -0.4 °F 78% 30.39 in 10.0 mi Calm Calm - N/A   Clear
10:55 AM 6.8 °F -0.1 °F 1.4 °F 79% 30.38 in 10.0 mi NE 3.5 mph - N/A   Clear
11:14 AM 8.6 °F 0.1 °F 1.4 °F 73% 30.37 in 10.0 mi NE 4.6 mph - N/A   Clear
11:55 AM 10.4 °F 4.0 °F 3.2 °F 73% 30.37 in 10.0 mi NE 3.5 mph - N/A   Clear
12:14 PM 10.4 °F 4.0 °F 3.2 °F 73% 30.37 in 10.0 mi NNE 3.5 mph - N/A   Clear
12:35 PM 12.2 °F - 3.2 °F 67% 30.38 in 10.0 mi Calm Calm - N/A   Clear
12:54 PM 12.2 °F - 3.2 °F 67% 30.39 in 10.0 mi Calm Calm - N/A   Clear
1:15 PM 14.0 °F 8.2 °F 5.0 °F 67% 30.39 in 10.0 mi SW 3.5 mph - N/A   Clear
1:34 PM 15.8 °F - 6.8 °F 68% 30.39 in 10.0 mi Calm Calm - N/A   Clear
1:55 PM 15.8 °F 8.6 °F 6.8 °F 68% 30.37 in 10.0 mi NW 4.6 mph - N/A   Clear
2:15 PM 17.6 °F 12.3 °F 6.8 °F 63% 30.36 in 10.0 mi North 3.5 mph - N/A   Clear
2:35 PM 17.6 °F 10.7 °F 8.6 °F 68% 30.35 in 10.0 mi North 4.6 mph - N/A   Clear
2:55 PM 17.6 °F 9.3 °F 8.6 °F 68% 30.33 in 10.0 mi NE 5.8 mph - N/A   Clear
3:14 PM 17.6 °F 5.0 °F 10.4 °F 73% 30.33 in 10.0 mi NNE 11.5 mph - N/A   Clear
3:35 PM 17.6 °F 5.0 °F 10.4 °F 73% 30.32 in 10.0 mi NE 11.5 mph - N/A   Clear
3:54 PM 17.6 °F 6.4 °F 10.4 °F 73% 30.32 in 10.0 mi NE 9.2 mph - N/A   Clear
4:15 PM 17.6 °F 6.4 °F 10.4 °F 73% 30.32 in 10.0 mi NE 9.2 mph - N/A   Clear
4:35 PM 17.6 °F 6.4 °F 10.4 °F 73% 30.32 in 10.0 mi NNE 9.2 mph - N/A   Clear
4:54 PM 17.6 °F 6.4 °F 10.4 °F 73% 30.32 in 10.0 mi NNE 9.2 mph - N/A   Clear
5:15 PM 17.6 °F 7.3 °F 10.4 °F 73% 30.33 in 10.0 mi ENE 8.1 mph - N/A   Clear
5:34 PM 15.8 °F 5.1 °F 10.4 °F 79% 30.33 in 10.0 mi ENE 8.1 mph - N/A   Clear
5:54 PM 15.8 °F 7.2 °F 10.4 °F 79% 30.34 in 10.0 mi NE 5.8 mph - N/A   Clear
6:15 PM 15.8 °F 7.2 °F 10.4 °F 79% 30.33 in 10.0 mi NNE 5.8 mph - N/A   Clear
6:34 PM 15.8 °F 5.1 °F 10.4 °F 79% 30.33 in 10.0 mi NNE 8.1 mph - N/A   Clear
6:54 PM 14.0 °F 8.2 °F 10.4 °F 86% 30.33 in 10.0 mi NNE 3.5 mph - N/A   Clear
7:15 PM 14.0 °F 5.1 °F 10.4 °F 86% 30.33 in 10.0 mi NE 5.8 mph - N/A   Clear
7:35 PM 12.2 °F 1.7 °F 10.4 °F 92% 30.32 in 10.0 mi NE 6.9 mph - N/A   Clear
7:54 PM 12.2 °F 1.7 °F 8.6 °F 85% 30.32 in 10.0 mi NE 6.9 mph - N/A   Clear
8:15 PM 12.2 °F 2.9 °F 8.6 °F 85% 30.32 in 10.0 mi ENE 5.8 mph - N/A   Clear
8:35 PM 12.2 °F 4.3 °F 8.6 °F 85% 30.32 in 10.0 mi East 4.6 mph - N/A   Clear
8:54 PM 12.2 °F 4.3 °F 8.6 °F 85% 30.32 in 10.0 mi East 4.6 mph - N/A   Clear
9:15 PM 12.2 °F 6.1 °F 8.6 °F 85% 30.33 in 10.0 mi East 3.5 mph - N/A   Clear
9:34 PM 12.2 °F 2.9 °F 8.6 °F 85% 30.33 in 10.0 mi ENE 5.8 mph - N/A   Clear
9:55 PM 12.2 °F 2.9 °F 8.6 °F 85% 30.33 in 10.0 mi ENE 5.8 mph - N/A   Clear
10:15 PM 12.2 °F 2.9 °F 8.6 °F 85% 30.32 in 10.0 mi ENE 5.8 mph - N/A   Clear
10:34 PM 12.2 °F 2.9 °F 8.6 °F 85% 30.32 in 10.0 mi East 5.8 mph - N/A   Clear
10:55 PM 12.2 °F 6.1 °F 8.6 °F 85% 30.32 in 10.0 mi East 3.5 mph - N/A   Clear
11:14 PM 12.2 °F 4.3 °F 8.6 °F 85% 30.32 in 10.0 mi East 4.6 mph - N/A   Clear
11:34 PM 12.2 °F 6.1 °F 8.6 °F 85% 30.32 in 10.0 mi East 3.5 mph - N/A   Clear
11:55 PM 12.2 °F - 8.6 °F 85% 30.32 in 10.0 mi Calm Calm - N/A   Clear